[[{"header":{"parameterUnit":"m.s-1","parameterCategory":1,"la1":30.2991,"la2":30.254,"lo1":-89.0895,"lo2":-89.0444,"dy":0.0017,"dx":0.0017,"nx":28,"ny":28,"refTime":"2024-08-09T03:00:00:Z","depth":0,"parameterNumber":2,"parameterNumberName":"U-component_of_WINDS"},"data":[0,0,0,0,0,0,0,0,0,0,0,0,0,0,0,0,0,0,0,0,0,0,0,0,0,0,0,0,0,0,0,0,0,0,0,0,0,0,0,0,0,0,0,0,0,0,0,0,0,0,0,0,0,0,0,0,0,0,-2.4884,-2.4884,0,-2.4868,-2.4868,-2.4868,-2.4812,-2.481,-2.4809,-2.4808,-2.4793,-2.4794,-2.4795,0,0,0,0,0,0,0,0,0,0,0,0,0,-2.4866,-2.4867,-2.4884,-2.4884,-2.4883,-2.4868,-2.4868,-2.4868,-2.4812,-2.481,-2.4809,-2.4807,-2.4793,-2.4794,-2.4795,0,0,0,0,0,0,0,0,0,0,0,0,0,-2.4865,-2.4867,-2.4884,-2.4854,-2.4851,-2.4868,-2.4868,-2.4868,-2.4812,-2.481,-2.4808,-2.4807,-2.4793,-2.4794,-2.4795,-2.4841,0,0,-2.4799,-2.4799,0,0,0,0,0,0,0,0,-2.4865,-2.4865,-2.4858,-2.4856,-2.4853,-2.484,-2.4856,-2.4859,-2.4813,-2.4827,-2.4808,-2.4806,-2.481,-2.481,-2.4811,-2.484,-2.484,-2.4799,-2.48,-2.48,-2.48,0,0,0,0,0,0,0,-2.4865,-2.4866,-2.4878,-2.4858,-2.4855,-2.4841,-2.4839,-2.4857,-2.483,-2.4826,-2.4821,-2.482,-2.4808,-2.481,-2.4811,-2.4839,-2.4799,-2.48,-2.4801,-2.4801,-2.4905,-2.4907,0,0,0,0,0,0,-2.4869,-2.4866,-2.4878,-2.4877,-2.4854,-2.4843,-2.484,-2.4846,-2.4829,-2.4825,-2.4822,-2.4818,-2.4809,-2.4809,-2.481,-2.4863,-2.48,-2.4801,-2.4802,-2.4903,-2.4906,-2.4908,0,0,0,0,0,0,-2.4869,-2.4871,-2.4879,-2.4871,-2.487,-2.4845,-2.4852,-2.4847,-2.4848,-2.4827,-2.4822,-2.4829,-2.4808,-2.4808,-2.4834,-2.4862,-2.4802,-2.4803,-2.4901,-2.4904,-2.4907,-2.4969,0,0,0,0,0,0,-2.4869,-2.4871,-2.4888,-2.4871,-2.4871,-2.4903,-2.4854,-2.4848,-2.485,-2.4845,-2.4832,-2.4828,-2.4806,-2.4832,-2.4835,-2.4862,-2.4804,-2.4898,-2.4902,-2.4906,-2.4965,-2.4974,-2.4982,0,0,0,0,0,-2.4868,-2.4906,-2.4889,-2.4891,-2.4892,-2.4904,-2.4904,-2.4879,-2.4853,-2.487,-2.4856,-2.4828,-2.4858,-2.4835,-2.4838,-2.4866,-2.4897,-2.4901,-2.4906,-2.4961,-2.4972,-2.4982,0,0,0,0,0,0,-2.4927,-2.4904,-2.4884,-2.4918,-2.4914,-2.4895,-2.4916,-2.4892,-2.4895,-2.4889,-2.4858,-2.4855,-2.4885,-2.4878,-2.4853,-2.491,-2.4873,-2.4878,-2.4914,-2.4924,-2.4933,-2.4935,-2.4805,0,0,0,0,0,-2.4944,-2.4956,-2.4935,-2.4967,-2.4965,-2.4941,-2.4946,-2.4926,-2.492,-2.4918,-2.4906,-2.4902,-2.4911,-2.4917,-2.4923,-2.4963,-2.496,-2.4984,-2.4993,-2.5,-2.5005,-2.5026,-2.5037,-2.4923,-2.4923,-2.4923,0,0,-2.498,-2.4968,-2.4977,-2.4978,-2.4972,-2.4986,-2.494,-2.4956,-2.4966,-2.4921,-2.4944,-2.4935,-2.4929,-2.4962,-2.4975,-2.4956,-2.5036,-2.5006,-2.5012,-2.5013,-2.5032,-2.5043,-2.5053,-2.4926,-2.4926,-2.4925,0,0,-2.5051,-2.5043,-2.5069,-2.5064,-2.5056,-2.5039,-2.5046,-2.503,-2.5023,-2.5045,-2.5012,-2.5023,-2.5038,-2.5035,-2.5036,-2.5106,-2.508,-2.5109,-2.5155,-2.5176,-2.5185,-2.5193,-2.5219,-2.5228,-2.5114,-2.5114,-2.5114,0,-2.5096,-2.5114,-2.5085,-2.5104,-2.5105,-2.5065,-2.5091,-2.5088,-2.5082,-2.5085,-2.5063,-2.5081,-2.5074,-2.5106,-2.5123,-2.5124,-2.5131,-2.5111,-2.5186,-2.5194,-2.52,-2.5225,-2.5235,-2.5118,-2.5117,-2.5117,-2.5116,0,-2.517,-2.5184,-2.5206,-2.5201,-2.5205,-2.5228,-2.5202,-2.521,-2.519,-2.5176,-2.52,-2.519,-2.5194,-2.52,-2.518,-2.5229,-2.5218,-2.5192,-2.5154,-2.5215,-2.5238,-2.5247,-2.5123,-2.5121,-2.512,-2.5119,0,0,-2.5279,-2.5258,-2.5267,-2.5265,-2.5252,-2.5262,-2.5283,-2.5286,-2.5294,-2.5291,-2.5309,-2.5322,-2.5298,-2.5299,-2.5279,-2.5297,-2.5354,-2.5268,-2.5268,-2.5286,-2.5408,-2.5429,-2.544,-2.5337,-2.5338,-2.534,-2.5409,0,-2.5348,-2.5382,-2.5356,-2.5394,-2.5407,-2.5368,-2.5386,-2.5381,-2.5369,-2.5378,-2.5363,-2.5374,-2.5341,-2.5341,-2.5357,-2.5344,-2.5378,-2.5338,-2.5353,-2.5354,-2.5357,-2.5451,-2.5473,-2.5539,-2.5417,-2.5419,-2.542,0,-2.5432,-2.5434,-2.5473,-2.5459,-2.5463,-2.548,-2.5481,-2.549,-2.5483,-2.5473,-2.5473,-2.5449,-2.5468,-2.5431,-2.5458,-2.5431,-2.5435,-2.543,-2.5432,-2.5433,-2.5392,-2.5456,-2.5559,-2.557,-2.5433,-2.5432,-2.5431,0,-2.5509,-2.552,-2.5546,-2.5545,-2.5528,-2.5541,-2.5535,-2.5526,-2.553,-2.5531,-2.5533,-2.5537,-2.554,-2.5543,-2.552,-2.5495,-2.5551,-2.5511,-2.5543,-2.5544,-2.5558,-2.5558,-2.5664,-2.5559,-2.5559,-2.5559,-2.5559,0,-2.5589,-2.5615,-2.558,-2.5596,-2.5624,-2.5594,-2.5623,-2.5613,-2.5606,-2.5619,-2.5586,-2.5599,-2.5567,-2.5578,-2.556,-2.5586,-2.5587,-2.558,-2.5575,-2.5583,-2.5584,-2.5587,-2.5582,-2.5561,-2.5561,-2.556,-2.556,0,-2.568,-2.5657,-2.5683,-2.5665,-2.5661,-2.5683,-2.5667,-2.5681,-2.5666,-2.5684,-2.5686,-2.5663,-2.5673,-2.565,-2.5658,-2.5646,-2.5683,-2.567,-2.5685,-2.5682,-2.5716,-2.5713,-2.5829,-2.5843,-2.5728,-2.5729,-2.573,0,-2.5733,-2.5752,-2.5736,-2.5742,-2.5738,-2.5749,-2.5752,-2.5724,-2.5729,-2.5723,-2.5738,-2.5746,-2.575,-2.5769,-2.5753,-2.5759,-2.5746,-2.5786,-2.5747,-2.5755,-2.5748,-2.5748,-2.575,-2.5795,-2.5796,-2.5797,-2.5798,0,-2.583,-2.5818,-2.5824,-2.5827,-2.5832,-2.5833,-2.5831,-2.5838,-2.5808,-2.5815,-2.5825,-2.5829,-2.5836,-2.5845,-2.5847,-2.584,-2.5815,-2.5811,-2.5819,-2.5828,-2.5836,-2.5833,-2.5708,-2.5808,-2.5807,-2.5807,-2.5806,-2.5806,-2.5904,-2.5919,-2.5911,-2.5919,-2.5915,-2.5914,-2.5926,-2.5913,-2.592,-2.5924,-2.5906,-2.5921,-2.5914,-2.5913,-2.591,-2.5921,-2.5903,-2.5915,-2.5918,-2.5921,-2.5927,-2.5834,-2.5921,-2.5921,-2.5921,-2.592,-2.592,0,-2.6,-2.5992,-2.6,-2.5999,-2.6006,-2.598,-2.5977,-2.5984,-2.5997,-2.5992,-2.5997,-2.6009,-2.6017,-2.6002,-2.6007,-2.6019,-2.6008,-2.6022,-2.6021,-2.602,-2.5943,-2.5936,-2.6031,-2.6031,-2.6031,-2.6031,-2.6031,-2.6031,-2.6051,-2.6076,-2.6063,-2.6085,-2.6077,-2.6091,-2.6091,-2.6091,-2.6087,-2.6102,-2.6108,-2.6097,-2.6088,-2.6093,-2.6099,-2.6095,-2.6099,-2.6117,-2.6109,-2.6037,-2.6026,-2.6015,-2.6009,-2.6118,-2.6118,-2.6186,-2.6186,-2.6187]},{"header":{"parameterUnit":"m.s-1","parameterCategory":1,"la1":30.2991,"la2":30.254,"lo1":-89.0895,"lo2":-89.0444,"dy":0.0017,"dx":0.0017,"nx":28,"ny":28,"refTime":"2024-08-09T03:00:00:Z","depth":0,"parameterNumber":3,"parameterNumberName":"V-component_of_WINDS"},"data":[0,0,0,0,0,0,0,0,0,0,0,0,0,0,0,0,0,0,0,0,0,0,0,0,0,0,0,0,0,0,0,0,0,0,0,0,0,0,0,0,0,0,0,0,0,0,0,0,0,0,0,0,0,0,0,0,0,0,-2.2873,-2.2873,0,-2.2856,-2.2856,-2.2856,-2.2814,-2.2814,-2.2813,-2.2812,-2.2796,-2.2796,-2.2796,0,0,0,0,0,0,0,0,0,0,0,0,0,-2.2871,-2.2871,-2.2873,-2.2873,-2.2873,-2.2856,-2.2856,-2.2856,-2.2815,-2.2814,-2.2812,-2.2811,-2.2795,-2.2796,-2.2796,0,0,0,0,0,0,0,0,0,0,0,0,0,-2.2865,-2.2871,-2.2873,-2.285,-2.2848,-2.2856,-2.2856,-2.2856,-2.2815,-2.2813,-2.2812,-2.2811,-2.2795,-2.2796,-2.2796,-2.2826,0,0,-2.2798,-2.2798,0,0,0,0,0,0,0,0,-2.2865,-2.2865,-2.2854,-2.2852,-2.2849,-2.2836,-2.2849,-2.2846,-2.2815,-2.2827,-2.2812,-2.281,-2.281,-2.2809,-2.2809,-2.2825,-2.2825,-2.2798,-2.2799,-2.2799,-2.2799,0,0,0,0,0,0,0,-2.2866,-2.2865,-2.2866,-2.2854,-2.2851,-2.2841,-2.2839,-2.2848,-2.2826,-2.2826,-2.2823,-2.2822,-2.2809,-2.2809,-2.2808,-2.2824,-2.2798,-2.2799,-2.2799,-2.2799,-2.2864,-2.2865,0,0,0,0,0,0,-2.2869,-2.2866,-2.2867,-2.2866,-2.2854,-2.2842,-2.2839,-2.2842,-2.2826,-2.2822,-2.2823,-2.282,-2.2808,-2.2808,-2.2808,-2.2842,-2.2799,-2.2799,-2.28,-2.2863,-2.2864,-2.2866,0,0,0,0,0,0,-2.2869,-2.287,-2.2868,-2.2865,-2.2864,-2.2843,-2.2846,-2.2842,-2.2842,-2.2824,-2.282,-2.2827,-2.2807,-2.2807,-2.2822,-2.284,-2.28,-2.28,-2.2861,-2.2863,-2.2865,-2.291,0,0,0,0,0,0,-2.2869,-2.287,-2.2881,-2.2866,-2.2864,-2.2882,-2.2847,-2.2843,-2.2843,-2.2839,-2.2826,-2.2823,-2.2806,-2.2821,-2.2822,-2.2841,-2.2801,-2.2859,-2.2862,-2.2864,-2.2906,-2.2913,-2.2919,0,0,0,0,0,-2.2869,-2.2894,-2.2882,-2.2882,-2.2878,-2.2883,-2.2882,-2.2862,-2.2845,-2.2855,-2.2844,-2.2823,-2.2838,-2.2823,-2.2824,-2.2843,-2.2858,-2.2861,-2.2864,-2.2904,-2.2912,-2.2918,0,0,0,0,0,0,-2.2913,-2.2892,-2.2878,-2.2898,-2.2893,-2.2876,-2.2889,-2.2871,-2.2871,-2.2867,-2.2843,-2.284,-2.2859,-2.2852,-2.2836,-2.287,-2.2845,-2.2848,-2.2874,-2.2882,-2.2888,-2.2889,-2.2801,0,0,0,0,0,-2.2925,-2.2931,-2.2912,-2.2932,-2.293,-2.291,-2.2912,-2.2897,-2.289,-2.2888,-2.2877,-2.2872,-2.2875,-2.2878,-2.288,-2.2905,-2.2902,-2.2918,-2.2924,-2.2929,-2.2933,-2.2946,-2.2953,-2.2876,-2.2876,-2.2876,0,0,-2.295,-2.2939,-2.2944,-2.2941,-2.2934,-2.2941,-2.2909,-2.2917,-2.2922,-2.2889,-2.2903,-2.2895,-2.2887,-2.2907,-2.2915,-2.2902,-2.2953,-2.2933,-2.2938,-2.2938,-2.295,-2.2957,-2.2964,-2.2878,-2.2878,-2.2877,0,0,-2.2998,-2.2991,-2.3007,-2.3001,-2.2992,-2.2979,-2.2982,-2.2968,-2.2962,-2.2974,-2.295,-2.2955,-2.2962,-2.2957,-2.2956,-2.3003,-2.2984,-2.3004,-2.3036,-2.3049,-2.3055,-2.3061,-2.3078,-2.3084,-2.3008,-2.3008,-2.3008,0,-2.3031,-2.304,-2.3017,-2.3027,-2.3027,-2.2996,-2.3013,-2.3008,-2.3001,-2.3001,-2.2986,-2.2993,-2.2986,-2.3005,-2.3016,-2.3016,-2.302,-2.3006,-2.3056,-2.3061,-2.3066,-2.3082,-2.3089,-2.301,-2.301,-2.301,-2.3009,0,-2.308,-2.3087,-2.3101,-2.3094,-2.3094,-2.3108,-2.3087,-2.3091,-2.3076,-2.3064,-2.3077,-2.3068,-2.3067,-2.307,-2.3056,-2.3087,-2.3079,-2.3061,-2.3034,-2.3076,-2.3091,-2.3097,-2.3014,-2.3013,-2.3012,-2.3012,0,0,-2.3157,-2.3136,-2.3142,-2.3138,-2.3126,-2.3131,-2.3143,-2.3142,-2.3146,-2.3141,-2.3151,-2.3157,-2.3139,-2.3138,-2.3122,-2.3134,-2.3172,-2.3114,-2.3113,-2.3125,-2.3206,-2.3221,-2.3229,-2.3159,-2.316,-2.3161,-2.3207,0,-2.3203,-2.3222,-2.3202,-2.3225,-2.3231,-2.3202,-2.3212,-2.3206,-2.3195,-2.3199,-2.3187,-2.3192,-2.3168,-2.3167,-2.3177,-2.3165,-2.3188,-2.3162,-2.3169,-2.3169,-2.3172,-2.3236,-2.3252,-2.3296,-2.3213,-2.3214,-2.3214,0,-2.326,-2.3258,-2.3282,-2.3268,-2.3269,-2.3279,-2.3277,-2.3281,-2.3273,-2.3264,-2.3262,-2.3244,-2.3254,-2.3228,-2.3243,-2.3226,-2.3227,-2.3222,-2.3223,-2.3224,-2.3195,-2.3239,-2.3309,-2.3316,-2.3223,-2.3223,-2.3222,0,-2.3314,-2.3317,-2.3332,-2.333,-2.3313,-2.3321,-2.3315,-2.3306,-2.3306,-2.3304,-2.3305,-2.3304,-2.3304,-2.3304,-2.3286,-2.3268,-2.3303,-2.3275,-2.3297,-2.3297,-2.3306,-2.3306,-2.3378,-2.3306,-2.3306,-2.3306,-2.3306,0,-2.3369,-2.3385,-2.3356,-2.3365,-2.3382,-2.3359,-2.3376,-2.3367,-2.3359,-2.3366,-2.3341,-2.3348,-2.3323,-2.3327,-2.3313,-2.3328,-2.3328,-2.3322,-2.3318,-2.3324,-2.3325,-2.3326,-2.3322,-2.3308,-2.3307,-2.3307,-2.3307,0,-2.3433,-2.3414,-2.3428,-2.3411,-2.3408,-2.3421,-2.3407,-2.3415,-2.3402,-2.3411,-2.3412,-2.3392,-2.3396,-2.3378,-2.3379,-2.3369,-2.3392,-2.3382,-2.3394,-2.3392,-2.3414,-2.3413,-2.349,-2.3499,-2.3421,-2.3421,-2.3422,0,-2.3469,-2.3481,-2.3465,-2.3468,-2.3462,-2.3467,-2.3468,-2.3445,-2.3446,-2.3438,-2.3447,-2.3449,-2.345,-2.3458,-2.3444,-2.3444,-2.3435,-2.3462,-2.3435,-2.3441,-2.3436,-2.3436,-2.3437,-2.3468,-2.3469,-2.347,-2.3471,0,-2.3536,-2.3526,-2.3527,-2.3526,-2.3527,-2.3525,-2.3521,-2.3525,-2.35,-2.3503,-2.3507,-2.3507,-2.3508,-2.351,-2.3508,-2.3501,-2.3482,-2.3479,-2.3484,-2.3491,-2.3498,-2.3495,-2.341,-2.3478,-2.3477,-2.3476,-2.3476,-2.3476,-2.3588,-2.3596,-2.3587,-2.3589,-2.3584,-2.3581,-2.3587,-2.3575,-2.3577,-2.3576,-2.3562,-2.3569,-2.3561,-2.3555,-2.3551,-2.3556,-2.3543,-2.3551,-2.3552,-2.3555,-2.3559,-2.3497,-2.3555,-2.3555,-2.3555,-2.3555,-2.3554,0,-2.3654,-2.3646,-2.3648,-2.3643,-2.3645,-2.3626,-2.3621,-2.3624,-2.363,-2.3623,-2.3624,-2.3628,-2.363,-2.3616,-2.3617,-2.3623,-2.3615,-2.3624,-2.3624,-2.3623,-2.357,-2.3566,-2.3631,-2.3631,-2.3631,-2.3631,-2.3631,-2.3631,-2.3688,-2.3702,-2.3691,-2.3702,-2.3694,-2.37,-2.3699,-2.3696,-2.3691,-2.3697,-2.3698,-2.3688,-2.3679,-2.3678,-2.368,-2.3675,-2.3677,-2.369,-2.3683,-2.3634,-2.3627,-2.362,-2.3616,-2.369,-2.3691,-2.3736,-2.3736,-2.3736]}]]